Regional Weather Roundup
Issued by NWS

Home | Current Version | Previous Version | Graphics & Text | Print | Product List | Glossary On
Versions: 1 2 3 4 5 6 7 8 9 10 11 12 13 14 15 16 17 18 19 20 21 22 23 24 25 26 27 28 29 30 31 32 33 34 35 36 37 38 39 40 41 42 43 44 45 46 47 48 49 50
000
ASUS44 KMEG 291200
RWRTN
TENNESSEE HOURLY STATE WEATHER ROUNDUP
NATIONAL WEATHER SERVICE MEMPHIS TN
600 AM CST THU JAN 29 2015

TNZ002-004-019-021-049-052-054-088>092-291300-
WEST TENNESSEE

CITY           SKY/WX    TMP DP  RH WIND       PRES   REMARKS
MEMPHIS INTL   CLOUDY    56  41  57 SW16G25   30.02R
NWS MEMPHIS      N/A     57 N/A N/A MISG        N/A
JACKSON        CLOUDY    54  37  52 SW15      30.00R
DYERSBURG      MOCLDY    57  36  44 SW17G25   29.98R
UNION CITY     CLEAR     50  39  66 S10       29.93S
PARIS          CLEAR     48  34  57 S12       29.97R
LEXINGTON      MOCLDY    50  34  53 S15       30.01S
SAVANNAH       CLOUDY    52  36  54 S17G29    30.06F
$$

TNZ008-025-027-028-033-062-065-066-291300-
NORTH MIDDLE TENNESSEE

CITY           SKY/WX    TMP DP  RH WIND       PRES   REMARKS
NASHVILLE      CLOUDY    48  32  53 S16G23    30.05F
CLARKSVILLE    CLOUDY    51  34  52 SW20G25   29.96S
COOKEVILLE     PTCLDY    45  27  49 S9        30.09R
CROSSVILLE     MOCLDY    41  21  44 VRB7G17   30.12F
$$

TNZ061-075-076-078-094-096-097-291300-
SOUTH MIDDLE TENNESSEE

CITY           SKY/WX    TMP DP  RH WIND       PRES   REMARKS
FAYETTEVILLE   MOCLDY    43  27  52 MISG      30.14R
TULLAHOMA      CLOUDY    45  25  45 S8        30.13R
WINCHESTER     PTCLDY    45  27  49 S14       30.15S
SHELBYVILLE    CLOUDY    48  28  46 S10       30.12S
$$

TNZ017-018-042-046-047-291300-
NORTHEAST TENNESSEE

CITY           SKY/WX    TMP DP  RH WIND       PRES   REMARKS
TRI CITIES     MOCLDY    25  22  88 CALM      30.17F
ELIZABETHTON   SUNNY     28  21  74 NE5       30.16S WCI  23
$$

TNZ012-013-036-069-073-074-291300-
CENTRAL EAST TENNESSEE

CITY           SKY/WX    TMP DP  RH WIND       PRES   REMARKS
KNOXVILLE      MOCLDY    28  23  81 NW3       30.19F
OAK RIDGE      MOCLDY    33  21  61 SW3       30.20F
GATLINBURG     SUNNY     25  21  86 CALM      30.19F
$$

TNZ083-085-099-291300-
SOUTHEAST TENNESSEE

CITY           SKY/WX    TMP DP  RH WIND       PRES   REMARKS
CHATTANOOGA    MOCLDY    31  25  78 CALM      30.22F
$$

SKY/WX REPORTED AS FAIR MEANS FEW OR NO CLOUDS BELOW
12 THOUSAND FEET.



USA.gov is the U.S. government's official web portal to all federal, state and local government web resources and services.